NOAA 16 DEB, 41257

Orbit data source: Space-Track

NOAA 16 DEB, 41257 is space debris in SSO originally from a launch on Thu, 21 Sep 2000 UTC launched from the Air Force Western Test Range (AFWTR). Debris objects in space refer to the collection of defunct objects orbiting the Earth. Examples of debris include non-operational satellites, rocket bodies, and fragments generated from explosions, collisions, or faulty payload assembly.

Loading next visibility...
Identifier
41257, 2000-055FH
Orbit
SSO
Country
Flag of USUS
Related business
Manufacturer
Unknown
Mission
Spacecraft
Bus & Motor
Unknown
Mass
Unknown
Launch date (UTC)
2000-09-21 (25 years ago)
Launch vehicle
Unknown
Launch site
Air Force Western Test Range (AFWTR)
Object type
Payload
Rocket body
Debris
Shape & HBR
Unknown shape, 0.1 m
Radar Cross Section
Small (<0.1 m²)

Expand to show TLE details & history
Last TLE update: 1 week ago

TLE from 1 week ago
0 NOAA 16 DEB
1 41257U 00055FH  25347.47834665  .00136576  00000-0  13174-1 0  9998
2 41257  98.9254 170.4033 0004339  45.6017 314.5553 14.92134491517038
Epoch: 2025-12-13T11:28Z
TLE epoch observation values (Epoch: 2025-12-13T11:28:49.150Z)
Latitude
-0.00003°
Longitude
-84.20653°
Altitude
592.165 km
Speed
7.565 km/s
True Right ascension
11h 21m 36s
True Declination
0° 00' 00"
Sunlit
Object was in daylight at epoch
Visualization orbit readout
Latitude
Unknown
Longitude
Unknown
Altitude
Unknown
Speed
Unknown
Apparent Right ascension
Unknown
Apparent Declination
Unknown
Sunlit
N/A
Visualization observer readout
Local Sidereal Time
07:32:59
Azimuth
Unknown
Elevation
Unknown
Doppler factor
Unknown
Orbital elements
Apogee altitude
591.378 km
Perigee altitude
585.332 km
Semi-major axis
6,966.492 km
Eccentricity
0.00043
Inclination
98.9254°
RAAN
170.4033°
Arg. of periapsis
45.6017°
True anomaly
314.51986°
Mean anomaly
314.5553°
Eccentric anomaly
314.53758°
Mean motion
3.73269 °/min
Orbital period
96.45 mins
BSTAR
0.013174
Loading maneuver chart data...
Computing Atmospheric mass density...
Loading historical data...
Loading historical data...
Loading historical data...
Loading historical data...
Loading historical data...
Loading historical data...
Loading historical data...

Documentation

Showing up to 5 results
|